Tracking 18942 objects as of 18-Jan-2018
HD Live streaming from Space Station
objects crossing your sky now

PSLV R/B

Track PSLV R/B now!
10-day predictions


NORAD ID: 39200
Int'l Code: 2013-034B
Perigee: 312.0 km
Apogee: 19,905.0 km
Inclination: 17.8 °
Period: 350.9 minutes
Semi major axis: 16479 km
RCS: Unknown
Launch date: July 1, 2013
Source: India (IND)
Launch site: SRIHARIKOTA (SRI)

Note: This is a ROCKET BODY
aabbcc
Your satellite tracking list
Your tracking list is empty




NASA's NSSDC Master Catalog

Two Line Element Set (TLE):
1 39200U 13034B   18017.62043735  .00001359  00000-0  36060-3 0  9998
2 39200  17.7793 242.2490 5944658 142.7356 279.0661  4.10380254 66923
Source of the keplerian elements: AFSPC